Geneva, Switzerland

11:15 PM CEST on October 18, 2017 (GMT +0200)
Cointrin

Weather History for LSGG - November, 2011

Change the Weather History Date:

Sunday, November 27, 2011

  Actual Average Record
Temperature  
Mean Temperature 40 °F -  
Max Temperature 49 °F 41 °F 55 °F (2006)
Min Temperature 30 °F 30 °F 15 °F (2005)
Degree Days  
Heating Degree Days 26    
Moisture  
Dew Point 34 °F    
Average Humidity 89    
Maximum Humidity 100    
Minimum Humidity 48    
Precipitation  
Precipitation 0.00 in 0.11 in - ()
Sea Level Pressure  
Sea Level Pressure 30.39 in    
Wind  
Wind Speed 2 mph ()    
Max Wind Speed 5 mph    
Max Gust Speed -    
Visibility 1.1 miles    
Events Fog    
Averages and records for this station are not official NWS values.
T = Trace of Precipitation, MM = Missing Value Source: Averaged Metar Reports

Daily Weather History Graph

Daily Weather History Graph

Search for Another Location

Airport or City:

Trip Planner

Search our weather history database for the weather conditions in past years. The results will help you decide how hot, cold, wet, or windy it might be!

Date:

Astronomy

Nov. 27, 2011 Rise Set
Actual Time 7:52 AM CET 4:53 PM CET
Civil Twilight 7:18 AM CET 5:27 PM CET
Nautical Twilight 6:41 AM CET 6:04 PM CET
Astronomical Twilight 6:05 AM CET 6:40 PM CET
Moon 10:05 AM CET (11/27) 7:12 PM CET (11/27)
Length of Visible Light 10h 08m
Length of Day
9h 01m
Waxing Crescent, 7% of the Moon is Illuminated
Nov 27
Waxing Crescent
Dec 2
First Quarter
Dec 10
Full
Dec 18
Last Quarter
Dec 24
New

Hourly Weather History & Observations

Time (CET) Temp. Windchill Dew Point Humidity Pressure Visibility Wind Dir Wind Speed Gust Speed Precip Events Conditions
12:00 AM 31 °F - 31 °F 97% 30.54 in - WSW 3.5 mph - -  
12:17 AM 32.0 °F 28.7 °F 30.2 °F 93% 30.45 in 0.3 mi West 3.5 mph - N/A Fog Light Freezing Fog
12:50 AM 32.0 °F 28.7 °F 30.2 °F 93% 30.45 in 0.2 mi Variable 3.5 mph - N/A Fog Light Freezing Fog
1:00 AM 31 °F - 31 °F 99% 30.53 in 0 mi West 2.3 mph - - Fog Heavy Fog
1:20 AM 30.2 °F 26.7 °F 30.2 °F 100% 30.45 in 0.2 mi SW 3.5 mph - N/A Fog Light Freezing Fog
1:50 AM 30.2 °F 26.7 °F 30.2 °F 100% 30.45 in 0.2 mi SW 3.5 mph - N/A Fog Light Freezing Fog
2:00 AM 31 °F - 30 °F 96% 30.53 in - SW 2.3 mph - -  
2:50 AM 30.2 °F - 30.2 °F 100% 30.45 in 0.1 mi Variable 1.2 mph - N/A Fog Light Freezing Fog
3:00 AM 31 °F - 31 °F 100% 30.52 in - West 1.2 mph - -  
3:20 AM 32.0 °F - 30.2 °F 93% 30.45 in 0.1 mi Variable 2.3 mph - N/A Fog Light Freezing Fog
3:50 AM 32.0 °F - 30.2 °F 93% 30.42 in 0.2 mi Variable 2.3 mph - N/A Fog Light Freezing Fog
4:20 AM 32.0 °F - 30.2 °F 93% 30.42 in 0.2 mi Variable 1.2 mph - N/A Fog Light Freezing Fog
4:50 AM 32.0 °F - 32.0 °F 100% 30.42 in 0.2 mi Variable 2.3 mph - N/A Fog Light Freezing Fog
5:00 AM 31 °F - 31 °F 100% 30.48 in - WNW 3.5 mph - -  
5:20 AM 32.0 °F - 30.2 °F 93% 30.39 in 0.2 mi Variable 2.3 mph - N/A Fog Light Freezing Fog
5:50 AM 32.0 °F - 32.0 °F 100% 30.39 in 0.2 mi Variable 1.2 mph - N/A Fog Light Freezing Fog
6:00 AM 31 °F - 31 °F 100% 30.48 in - WNW 1.2 mph - -  
6:20 AM 32.0 °F - 32.0 °F 100% 30.39 in 0.1 mi Variable 1.2 mph - N/A Fog Light Freezing Fog
6:50 AM 32.0 °F - 32.0 °F 100% 30.39 in 0.1 mi Variable 2.3 mph - N/A Fog Fog
7:00 AM 32 °F - 32 °F 100% 30.46 in 0 mi WNW 1.2 mph - - Fog Heavy Fog
7:20 AM 33.8 °F - 32.0 °F 93% 30.39 in 0.1 mi Variable 1.2 mph - N/A Fog Fog
7:50 AM 33.8 °F - 32.0 °F 93% 30.39 in 0.1 mi Variable 2.3 mph - N/A Fog Fog
8:00 AM 33 °F - 33 °F 99% 30.46 in - West 2.3 mph - -  
8:20 AM 33.8 °F - 32.0 °F 93% 30.39 in 0.1 mi Variable 1.2 mph - N/A Fog Fog
8:50 AM 33.8 °F - 32.0 °F 93% 30.39 in 0.1 mi Variable 2.3 mph - N/A Fog Fog
9:00 AM 33 °F - 33 °F 97% 30.47 in - SW 2.3 mph - -  
9:20 AM 32.0 °F - 32.0 °F 100% 30.39 in 0.1 mi SSW 2.3 mph - N/A Fog Fog
9:50 AM 32.0 °F 28.7 °F 32.0 °F 100% 30.39 in 0.2 mi Variable 3.5 mph - N/A Fog Fog
10:20 AM 33.8 °F 30.8 °F 32.0 °F 93% 30.39 in 0.2 mi SW 3.5 mph - N/A Fog Fog
10:50 AM 33.8 °F 30.8 °F 33.8 °F 100% 30.39 in 0.7 mi WSW 3.5 mph - N/A Fog Patches of Fog
11:00 AM 35 °F - 33 °F 91% 30.46 in - West 2.3 mph - -  
11:20 AM 35.6 °F 32.8 °F 35.6 °F 100% 30.39 in 1.6 mi SW 3.5 mph - N/A   Scattered Clouds
11:50 AM 37.4 °F - 35.6 °F 93% 30.39 in 3.1 mi Variable 2.3 mph - N/A   Partly Cloudy
12:00 PM 38 °F - 35 °F 82% 30.43 in - South 3.5 mph - -  
12:20 PM 41.0 °F 39.0 °F 39.2 °F 93% 30.36 in 4.3 mi SSW 3.5 mph - N/A   Unknown
12:50 PM 42.8 °F 41.1 °F 39.2 °F 87% 30.36 in - Variable 3.5 mph - N/A   Clear
1:00 PM 44 °F - 34 °F 58% 30.39 in 6 mi SSW 3.5 mph - -   Mist
1:20 PM 46.4 °F 45.2 °F 39.2 °F 76% 30.33 in - South 3.5 mph - N/A   Clear
1:50 PM 48.2 °F - 39.2 °F 71% 30.33 in - Variable 2.3 mph - N/A   Clear
2:00 PM 47 °F - 35 °F 53% 30.36 in - South 2.3 mph - -  
2:20 PM 50.0 °F - 39.2 °F 66% 30.33 in - Variable 2.3 mph - N/A   Clear
2:50 PM 51.8 °F - 41.0 °F 67% 30.33 in - Variable 2.3 mph - N/A   Clear
3:00 PM 49 °F - 35 °F 48% 30.34 in - South 2.3 mph - -  
3:20 PM 51.8 °F - 39.2 °F 62% 30.30 in - Variable 2.3 mph - N/A   Clear
3:50 PM 51.8 °F - 39.2 °F 62% 30.30 in - Variable 2.3 mph - N/A   Clear
4:20 PM 48.2 °F - 39.2 °F 71% 30.30 in - Variable 1.2 mph - N/A   Clear
4:50 PM 44.6 °F - 39.2 °F 81% 30.33 in - Variable 1.2 mph - N/A   Clear
5:00 PM 44 °F - 38 °F 73% 30.36 in - East 3.5 mph - -  
5:20 PM 41.0 °F - 37.4 °F 87% 30.33 in - Variable 1.2 mph - N/A   Clear
5:50 PM 41.0 °F - 37.4 °F 87% 30.33 in - Variable 1.2 mph - N/A   Clear
6:00 PM 42 °F - 38 °F 80% 30.38 in - North 3.5 mph - -  
6:20 PM 41.0 °F 39.0 °F 37.4 °F 87% 30.33 in - Variable 3.5 mph - N/A   Clear
6:50 PM 39.2 °F - 35.6 °F 87% 30.33 in - Calm Calm - N/A   Clear
7:00 PM 38 °F - 36 °F 92% 30.39 in 7 mi WSW 1.2 mph - -   Mist
7:20 PM 37.4 °F - 35.6 °F 93% 30.33 in - Variable 1.2 mph - N/A   Clear
7:50 PM 39.2 °F - 35.6 °F 87% 30.33 in - Variable 2.3 mph - N/A   Clear
8:00 PM 36 °F - 35 °F 93% 30.39 in - SW 3.5 mph - -  
8:20 PM 35.6 °F - 33.8 °F 93% 30.33 in - WNW 2.3 mph - N/A   Clear
8:50 PM 35.6 °F - 33.8 °F 93% 30.33 in - Variable 2.3 mph - N/A   Clear
9:00 PM 36 °F - 34 °F 87% 30.40 in - West 2.3 mph - -  
9:20 PM 35.6 °F - 33.8 °F 93% 30.33 in - Variable 1.2 mph - N/A   Clear
9:50 PM 33.8 °F - 32.0 °F 93% 30.33 in - Variable 2.3 mph - N/A   Clear
10:20 PM 35.6 °F 31.7 °F 33.8 °F 93% 30.33 in - SW 4.6 mph - N/A   Clear
10:50 PM 33.8 °F 30.8 °F 32.0 °F 93% 30.33 in - Variable 3.5 mph - N/A   Clear
11:00 PM 33 °F - 31 °F 89% 30.42 in - West 2.3 mph - -  
11:20 PM 33.8 °F 30.8 °F 32.0 °F 93% 30.33 in - Variable 3.5 mph - N/A   Clear
11:50 PM 32.0 °F - 30.2 °F 93% 30.33 in 5.6 mi Variable 2.3 mph - N/A   Unknown